Regional Weather Roundup
Issued by NWS Northern Indiana

Home | Current Version | Previous Version | Graphics & Text | Print | Product List | Glossary On
Versions: 1 2 3 4 5 6 7 8 9 10 11 12 13 14 15 16 17 18 19 20 21 22 23 24 25 26 27 28 29 30 31 32 33 34 35 36 37 38 39 40 41 42 43 44 45 46 47 48 49 50
000
ASUS43 KIWX 242210
RWRIWX

KIWX WEATHER ROUNDUP
NATIONAL WEATHER SERVICE NORTHERN INDIANA
600 PM EDT TUE MAY 24 2016

NOTE: "FAIR" INDICATES FEW OR NO CLOUDS BELOW 12,000 FEET WITH NO
SIGNIFICANT WEATHER AND/OR OBSTRUCTIONS TO VISIBILITY.

* THESE STATIONS ARE NOT UNDER NWS QUALITY CONTROL. THEY ALSO MAY NOT
  REPORT WEATHER SUCH AS PRECIPITATION OR FOG.

INZ001>027-242300-
NORTHERN INDIANA

CITY           SKY/WX    TMP DP  RH WIND       PRES   REMARKS
GARY*          PTSUNNY   88  59  37 SW14      29.95S
VALPARAISO     CLOUDY    86  48  26 SW13G25   29.97S
MICHIGAN CITY* CLOUDY    82  50  32 SW8G20    29.97S
LAPORTE*       CLOUDY    87  43  21 SW13      29.98S
KNOX*          CLOUDY    84  28  13 S15         N/A
SOUTH BEND     SUNNY     84  46  26 SW13      29.98R
ELKHART*       SUNNY     84  55  37 S7        29.99R
GOSHEN         SUNNY     83  47  28 SW14      29.99R
MONTICELLO*    SUNNY     85  36  17 SW9       29.99R
LOGANSPORT*    SUNNY     82  46  28 SW15      30.01S
ROCHESTER*     SUNNY     86  48  26 SW9G20    30.01R
WARSAW*        SUNNY     82  50  32 SW7       30.00R
ANGOLA*        SUNNY     82  52  34 SW7       30.00S
FORT WAYNE     MOSUNNY   83  46  27 S9        30.02R
HUNTINGTON*    SUNNY    N/A N/A N/A SW7       30.01R
PERU/GRISSOM   SUNNY     83  50  31 SW12      30.00S
MARION*        SUNNY     83  43  24 SW14      30.03R

$$
INZ028>050-242300-
CENTRAL INDIANA

CITY           SKY/WX    TMP DP  RH WIND       PRES   REMARKS
LAFAYETTE      SUNNY     83  49  30 S10G20    29.99S
KOKOMO*        SUNNY     82  52  34 SW10G17   30.01S
MUNCIE*        SUNNY     83  42  23 S9        30.04R
INDIANAPOLIS   MOSUNNY   81  54  39 SW14      30.02S

$$
MIZ043>046-050>051-056>058-064>065-071>073-077>080-242300-
SOUTHWEST LOWER MICHIGAN

CITY           SKY/WX    TMP DP  RH WIND       PRES   REMARKS
BATTLE CREEK   SUNNY     82  47  29 SW13G24   29.99S
BENTON HARBOR  MOSUNNY   83  50  31 W8        29.96S
COLDWATER*     MOSUNNY   82  45  26 W13       29.99S
HILLSDALE*     SUNNY     82  36  19 SW9       30.01S
HOLLAND        SUNNY     83  50  31 W12       29.98S
GRAND RAPIDS   MOSUNNY   85  50  29 W13       29.98R
KALAMAZOO      SUNNY     85  48  27 SW12      29.98S
STURGIS*       MOSUNNY   82  50  31 S13       29.99R
THREE RIVERS*  FAIR      84  45  24 SW9       29.99R

$$
OHZ001>008-015>018-024>025-242300-
NORTHWEST OHIO

CITY           SKY/WX    TMP DP  RH WIND       PRES   REMARKS
WAUSEON*         N/A     84  54  34 SW10G17   30.00R
DEFIANCE       SUNNY     85  45  24 W6        30.00F
FINDLAY        SUNNY     82  39  21 SW10      30.00F
TOLEDO EXPRESS SUNNY     83  44  25 S12       29.98F
TOLEDO METCALF SUNNY     84  42  22 W8        30.00F
LIMA           SUNNY     81  40  23 MISG      30.03F

$$
AND FOR LAKE MICHIGAN COASTAL AND OPEN LAKE BUOY OBSERVATIONS

STATION/POSITION TEMP    WIND        PRES    VSBY  WAVE
                 AIR SEA DIR/SP/G                  HT/PER
                 (F)     (DEG/KT/KT) (MB)    (MI)  (FT/S)
CALUMET HARBOR    85     200/  7/ 12 1013.3F
MICHIGAN CITY     81     210/ 14/ 16   N/A
BURNS HARBOR      83     210/ 12/ 20 1014.6S
SAINT JOSEPH      84      CALM  /  1 1015.6S
SOUTH LAKE BUOY   58 49  130/ 10/ 10 1013.8F         1
4 MI NW BRIDGMAN  72 69   70/  4/  4   N/A           0
MICHIGAN CITY     70 60  230/  6/  8   N/A           1

$$
&&



USA.gov is the U.S. government's official web portal to all federal, state and local government web resources and services.